INTELSAT 9 (IS-9) (26451 NORAD) Tracking and Keplerian Element Data

This shows tracking and keplerian element data for the satellite.

Feedback or suggestion? Click here.




ElementValue
Catalog26451
NameINTELSAT 9 (IS-9)
Epoch Orbit6587
Epoch Day201.35301413
Epoch Year2018
RAAN69.3924
Inclination4.3077
Eccentricity0.0004489
Argument of Perigee53.4962
Mean Anonmoly292.2803
Mean Motion1.00360992
Decay Rate-8.7E-07
L11 26451U 00043A 18201.35301413 -.00000087 00000-0 00000+0 0 9992
L22 26451 4.3077 69.3924 0004489 53.4962 292.2803 1.00360992 65870

Live tracking and technical data element details for INTELSAT 9 (IS-9) (NORAD 26451). INTELSAT 9 (IS-9) can be tracked NOW for your location showing map with azimuth and elevation plus other details from your city location.

Track the satellite on the map from your city or location and see movement details for azimuth, elevation, latitude, longitude, range, height, and movement on the map or in text.







IsCatalogInMostPopularTable: catalog: 26451, numindb: 40
Update: records affected: 1



GetName: 26451 INTELSAT 9 (IS-9)

Hit Count: updated at: Sat, 21 Jul 2018 07:56:43 GMT